Regional Weather Roundup
Issued by NWS

Home | Current Version | Previous Version | Graphics & Text | Print | Product List | Glossary Off
Versions: 1 2 3 4 5 6 7 8 9 10 11 12 13 14 15 16 17 18 19 20 21 22 23 24 25 26 27 28 29 30 31 32 33 34 35 36 37 38 39 40 41 42 43 44 45 46 47 48 49 50

000
ASUS43 KDMX 262206
RWRIA

WEATHER ROUNDUP FOR IOWA
NATIONAL WEATHER SERVICE DES MOINES IA
500 PM CDT SUN MAR 26 2017

NOTE: "FAIR" INDICATES FEW OR NO CLOUDS BELOW 12,000 FEET WITH NO
SIGNIFICANT WEATHER AND/OR OBSTRUCTIONS TO VISIBILITY.

* - THESE STATIONS ARE NOT NWS STATIONS...THUS NOT UNDER NWS
QUALITY CONTROL.  THEY ALSO DO NOT REPORT WEATHER SUCH
AS PRECIPITATION OR FOG.

IAZ001>003-012>014-020>022-031>034-043>046-262300-
   NORTHWEST IOWA

CITY           SKY/WX    TMP DP  RH WIND       PRES   REMARKS
CARROLL *      CLOUDY    46  45  93 N10       29.89S
CHEROKEE *     CLOUDY    46  41  83 N8        29.90S
LE MARS *      CLOUDY    46  39  76 N9        29.92S
ORANGE CITY *  CLOUDY    46  41  81 N8        29.91R
SHELDON *      CLOUDY    45  45 100 N9        29.90S
SIOUX CITY     CLOUDY    48  41  76 NW12      29.92R
SPENCER        CLOUDY    46  39  76 NW9       29.91S
STORM LAKE *     N/A     45  41  87 N9        29.90R
$$

IAZ055>058-069>071-079>083-090>094-262300-
   SOUTHWEST IOWA

CITY           SKY/WX    TMP DP  RH WIND       PRES   REMARKS
ATLANTIC *     CLOUDY    48  43  81 NW7       29.90R
AUDUBON *      CLOUDY    46  41  81 NW6       29.91R
CLARINDA *     CLOUDY    48  45  87 NW5       29.92F
COUNCIL BLFS *   N/A     48  45  87 N8        29.90S
CRESTON *      CLOUDY    46  45  93 NW6       29.90S
HARLAN  *      CLOUDY    48  46  93 N6        29.93S
LAMONI         CLOUDY    48  43  82 W8        29.89S
RED OAK *      CLOUDY    48  43  81 N6        29.90S
SHENANDOAH *   CLOUDY    48  43  81 NW5       29.91S
$$

IAZ047>049-059>061-072>074-084-262300-
   CENTRAL IOWA

CITY           SKY/WX    TMP DP  RH WIND       PRES   REMARKS
AMES           CLOUDY    46  44  93 NW10      29.89R
ANKENY *       CLOUDY    46  45  93 NW8       29.90S FOG
BOONE *        CLOUDY    45  45 100 NW8       29.89R FOG
CHARITON *     CLOUDY    48  45  87 W9        29.89S
DES MOINES     CLOUDY    48  43  82 NW9       29.89
GRINNELL*      CLOUDY    46  44  92 W9        29.89R
MARSHALLTOWN   CLOUDY    48  45  89 NW9       29.87R
NEWTON *       CLOUDY    46  45  93 NW9       29.88R
PELLA *        CLOUDY    47  44  88 NW9       29.90S
PERRY *        CLOUDY    47  44  90 NW7       29.90R
$$

IAZ004>006-015-016-023>025-035-036-262300-
   NORTH CENTRAL IOWA

CITY           SKY/WX    TMP DP  RH WIND       PRES   REMARKS
ALGONA *       LGT RAIN  43  43 100 N9        29.90S
CLARION *      CLOUDY    45  45 100 NW13      29.89R FOG
ESTHERVILLE    CLOUDY    41  39  93 N12       29.91R
FORT DODGE *   CLOUDY    45  39  81 N5        29.90S
MASON CITY     CLOUDY    43  40  89 N9        29.89S
FOREST CITY *  CLOUDY    43  43 100 NW9       29.89R
WEBSTER CITY * CLOUDY    45  43  93 NW12      29.87S
IOWA FALLS *   CLOUDY    46  44  90 NW10      29.89R FOG
$$

IAZ007>011-017>019-026>030-037>042-050>054-066-262300-
   NORTHEAST IOWA

CITY           SKY/WX    TMP DP  RH WIND       PRES   REMARKS
CEDAR RAPIDS   CLOUDY    48  47  96 NW8       29.84R
CHARLES CITY * CLOUDY    45  45 100 NW10      29.88R
CLINTON *      CLOUDY    54  53  97 NW14      29.82S FOG
DECORAH *      CLOUDY    43  41  93 N7        29.85R
DUBUQUE        CLOUDY    47  47 100 N10       29.83F FOG
MONTICELLO *   CLOUDY    48  46  93 N9        29.84R
OELWEIN *      CLOUDY    46  45  93 N6        29.86R
WATERLOO       CLOUDY    47  43  86 W6        29.87
$$

IAZ064-065-067-068-078-262300-
   EAST CENTRAL IOWA

CITY           SKY/WX    TMP DP  RH WIND       PRES   REMARKS
DAVENPORT      CLOUDY    52  50  93 W12       29.84R
IOWA CITY      CLOUDY    51  45  79 NW8       29.87R
MUSCATINE *    CLOUDY    52  48  87 W9        29.87R
QUAD CITIES    CLOUDY    52  49  89 SW13      29.84R FOG
$$

IAZ062-063-075>077-085>089-095>099-262300-
   SOUTHEAST IOWA

CITY           SKY/WX    TMP DP  RH WIND       PRES   REMARKS
BURLINGTON     CLOUDY    50  48  93 W12       29.87R
FAIRFIELD *    CLOUDY    48  45  87 W9        29.88R
FORT MADISON * CLOUDY    52  50  93 W6        29.89R
KEOKUK *       CLOUDY    50  46  87 W9        29.88S
OSKALOOSA *    CLOUDY    46  44  91 W12       29.89R
OTTUMWA        CLOUDY    49  46  90 W10       29.88S
WASHINGTON *   CLOUDY    50  48  93 W10       29.88R
$$

ABBREVIATIONS USED IN REMARKS
   TC - TEMPERATURES IN CELSIUS
  WCI - WIND CHILL INDEX
   HX - HEAT INDEX
  VSB - VISIBILITY
$$





USA.gov is the U.S. government's official web portal to all federal, state and local government web resources and services.